Location: Altleiningen
(49.5078°N, 8.0741°E)
Time: 11:43:18
(UTC+00:00)

Cosmos 1992 Rocket - Pass Details

Date: 03 March 2021
Orbit: 759 x 765 km, 74.0° (Epoch: 12 April)

Event Time Altitude Azimuth Distance (km) Brightness Sun altitude
Rises 17:48:00 0° 179° (S) 3,217 7.3 -6.3°
Reaches altitude 10° 17:50:28 10° 171° (S) 2,295 6.4 -6.7°
Maximum altitude 17:55:17 39° 104° (ESE) 1,130 4.4 -7.5°
Drops below altitude 10° 18:00:08 10° 36° (NE) 2,309 6.1 -8.3°
Sets 18:02:38 0° 29° (NNE) 3,238 6.9 -8.7°
